This demonstration page uses our WeatherBlox Daily Observations layout. Learn more.

Left ArrowRight Arrow

Hourly Observations for May 19, 2021

Temp ( °F °C ) Dew Point ( °F °C ) Humidity (%) Winds ( mph kmh ) Pressure ( in mb ) Visibility ( mi km ) Precip ( " mm )
12:53 am 00:53 Clear 71 21.7 60 15.6 68 68 E 10 17 30.22 1024 10 16 0.00 0.00
1:53 am 01:53 Clear 69 20.6 61 16.1 76 76 E 7 11 30.21 1023 10 16 0.00 0.00
2:53 am 02:53 Clear 68 20 60 15.6 76 76 E 7 11 30.21 1023 10 16 0.00 0.00
3:53 am 03:53 Partly Cloudy 68 20 58 14.4 70 70 ESE 7 11 30.21 1023 10 16 0.00 0.00
4:53 am 04:53 Clear 67 19.4 56 13.3 68 68 E 6 9 30.23 1024 10 16 0.00 0.00
5:53 am 05:53 Mostly Clear 66 18.9 56 13.3 70 70 E 6 9 30.24 1024 10 16 0.00 0.00
6:53 am 06:53 Sunny 67 19.4 54 12.2 63 63 E 5 7 30.25 1025 10 16 0.00 0.00
7:53 am 07:53 Sunny 67 19.4 54 12.2 63 63 E 5 7 30.27 1025 10 16 0.00 0.00
8:53 am 08:53 Sunny 69 20.6 55 12.8 61 61 ESE 10 17 30.28 1025 10 16 0.00 0.00
9:53 am 09:53 Sunny 72 22.2 56 13.3 57 57 E 9 15 30.28 1025 10 16 0.00 0.00
10:53 am 10:53 Sunny 75 23.9 55 12.8 50 50 E 12 19 30.27 1025 10 16 0.00 0.00
11:53 am 11:53 Sunny 77 25 51 10.6 40 40 E 12 19 30.28 1025 10 16 0.00 0.00
12:53 pm 12:53 Sunny 78 25.6 52 11.1 40 40 SE 14 22 30.27 1025 10 16 0.00 0.00
1:53 pm 13:53 Mostly Cloudy 79 26.1 54 12.2 42 42 ESE 10 17 30.26 1025 10 16 0.00 0.00
2:53 pm 14:53 Mostly Cloudy 79 26.1 54 12.2 42 42 SE 14 22 30.25 1025 10 16 0.00 0.00
3:53 pm 15:53 Partly Cloudy 80 26.7 53 11.7 39 39 E 13 20 30.24 1024 10 16 0.00 0.00
4:53 pm 16:53 Partly Cloudy 81 27.2 54 12.2 39 39 SE 8 13 30.22 1023 10 16 0.00 0.00
5:53 pm 17:53 Sunny 80 26.7 55 12.8 42 42 E 10 17 30.22 1023 10 16 0.00 0.00
6:53 pm 18:53 Sunny 79 26.1 56 13.3 45 45 ESE 12 19 30.21 1023 10 16 0.00 0.00
7:53 pm 19:53 Mostly Sunny 78 25.6 56 13.3 47 47 E 6 9 30.21 1023 10 16 0.00 0.00
8:53 pm 20:53 Cloudy 77 25 55 12.8 47 47 E 7 11 30.22 1023 10 16 0.00 0.00
9:53 pm 21:53 Cloudy 76 24.4 57 13.9 52 52 ESE 10 17 30.23 1024 10 16 0.00 0.00
10:53 pm 22:53 Mostly Clear 74 23.3 58 14.4 57 57 E 7 11 30.25 1024 10 16 0.00 0.00
11:53 pm 23:53 Partly Cloudy 73 22.8 59 15 62 62 ESE 9 15 30.25 1025 10 16 0.00 0.00

Powered by AerisWeather